Location: Wiesbaden
(50.0830°N, 8.2500°E)
Time: 20:39:09
(UTC+02:00)

ISS - Pass Details

Date: 25 April 2026
Orbit: 414 x 424 km, 51.6° (Epoch: 12 May)

Event Time Altitude Azimuth Distance (km) Brightness Sun altitude
Exits shadow 04:45:37 25° 229° (SW) 898 -2.7 -13.0°
Maximum altitude 04:47:24 60° 156° (SSE) 486 -3.6 -12.8°
Drops below altitude 10° 04:50:44 10° 76° (ENE) 1,507 0.2 -12.4°
Sets 04:52:51 0° 73° (ENE) 2,375 1.5 -12.1°
